Location: Pilipovskiye Korichintsy
(49.1833°N, 27.4667°E)
Time: 12:10:43
(UTC+00:00)

Cosmos 1271 Rocket - Pass Details

Date: 14 July 2020
Orbit: 497 x 546 km, 81.2° (Epoch: 07 August)

Event Time Altitude Azimuth Distance (km) Brightness Sun altitude
Rises 01:04:27 0° 352° (N) 2,634 7.0 -9.9°
Reaches altitude 10° 01:06:40 10° 359° (N) 1,735 6.1 -9.7°
Maximum altitude 01:10:21 47° 74° (ENE) 675 3.7 -9.3°
Drops below altitude 10° 01:13:58 10° 150° (SSE) 1,703 5.1 -8.9°
Sets 01:16:07 0° 156° (SSE) 2,578 6.0 -8.7°
